This is the latest recevied weather packets stored in our database for station/object W0AKY-13. If no packets are shown the sender has not sent any weather packets the latest 10 day(s).
| Time | Temp. | Humidity | Pressure | Rain* | Wind** | Luminosity | Snow |
|---|---|---|---|---|---|---|---|
| 1777636300 | 4.44° C | 80% | 1019.1 hPa | 0 mm | - | 8 W/m² | - |
| 1777635995 | 4.44° C | 80% | 1019.1 hPa | 0 mm | - | 7 W/m² | - |
| 1777635691 | 4.44° C | 80% | 1019.1 hPa | 0 mm | - | 6 W/m² | - |
| 1777635388 | 4.44° C | 80% | 1018.9 hPa | 0 mm | - | 4 W/m² | - |
| 1777635085 | 4.44° C | 78% | 1019 hPa | 0 mm | - | 3 W/m² | - |
| 1777634781 | 5° C | 77% | 1019 hPa | 0 mm | - | 2 W/m² | - |
| 1777634478 | 5° C | 77% | 1018.8 hPa | 0 mm | - | 1 W/m² | - |
| 1777634175 | 5° C | 76% | 1019.1 hPa | 0 mm | - | 1 W/m² | - |
| 1777633871 | 5° C | 77% | 1018.9 hPa | 0 mm | - | 0 W/m² | - |
| 1777633569 | 5° C | 77% | 1018.8 hPa | 0 mm | - | 0 W/m² | - |
| 1777633267 | 5° C | 78% | 1019 hPa | 0 mm | - | 0 W/m² | - |
| 1777632964 | 5° C | 77% | 1019 hPa | 0 mm | - | 0 W/m² | - |
| 1777632660 | 4.44° C | 78% | 1018.9 hPa | 0 mm | - | 0 W/m² | - |
| 1777632357 | 4.44° C | 79% | 1019 hPa | 0 mm | - | 0 W/m² | - |
| 1777632054 | 5° C | 77% | 1018.9 hPa | 0 mm | - | 0 W/m² | - |
| 1777631752 | 5° C | 76% | 1018.8 hPa | 0 mm | - | 0 W/m² | - |
| 1777631449 | 5° C | 74% | 1019 hPa | 0 mm | - | 0 W/m² | - |
| 1777631146 | 5° C | 74% | 1018.9 hPa | 0 mm | - | 0 W/m² | - |
| 1777630843 | 5° C | 73% | 1019.1 hPa | 0 mm | - | 0 W/m² | - |
| 1777630533 | 5° C | 75% | 1018.8 hPa | 0 mm | - | 0 W/m² | - |
| 1777630230 | 5° C | 75% | 1018.9 hPa | 0 mm | - | 0 W/m² | - |
| 1777629929 | 4.44° C | 75% | 1018.6 hPa | 0 mm | - | 0 W/m² | - |
| 1777629626 | 4.44° C | 79% | 1019 hPa | 0 mm | - | 0 W/m² | - |
| 1777629322 | 3.89° C | 81% | 1018.8 hPa | 0 mm | - | 0 W/m² | - |
| 1777629017 | 3.89° C | 82% | 1019 hPa | 0 mm | - | 0 W/m² | - |
* Rain latest hour (hover to see other rain measurements)
** Current wind speed in m/s (hover to see current wind gust speed)